Location: Houston
(29.7631°N, 95.3631°W)
Time: 05:17:32
(UTC-05:00)

Envisat - Visible Passes

Search period start: 19 June 2021 00:00
Search period end: 29 June 2021 00:00
Orbit: 764 x 766 km, 98.1° (Epoch: 18 June)

Date Brightness Start Highest point End Pass type
(mag) Time Alt. Az. Time Alt. Az. Time Alt. Az.
21 Jun 6.3 05:20:31 10° E 05:20:36 10° E 05:20:42 10° E visible
23 Jun 5.6 05:42:26 10° NE 05:46:09 20° E 05:49:52 10° SE visible
26 Jun 5.7 05:31:41 10° ENE 05:34:37 15° E 05:37:32 10° SE visible
28 Jun 5.0 05:55:43 10° NE 06:00:07 29° E 06:04:29 10° SSE visible
